GFSGBSN_prec_pwat_000.txt.gz
Precipitable_Water
0.61 0.60 0.60 0.60 0.60 0.59 0.57 0.56 0.55 0.57 0.56 0.55 0.50 0.50 0.51 0.51 0.52 0.48 0.44 0.42 0.40 0.43 0.46 0.49 0.51 0.50 0.45 0.27 0.19 0.31 0.32 0.43 0.48 0.48 0.40 0.47 0.48 0.46 0.45 0.54 0.61 0.61 0.63 0.65 0.78 0.82 0.86
0.58 0.59 0.59 0.59 0.58 0.58 0.59 0.58 0.56 0.54 0.54 0.55 0.55 0.51 0.49 0.48 0.49 0.50 0.47 0.43 0.41 0.40 0.44 0.49 0.52 0.54 0.34 0.17 0.33 0.28 0.38 0.46 0.37 0.37 0.39 0.45 0.46 0.50 0.49 0.52 0.55 0.57 0.62 0.72 0.81 0.74 0.79
0.59 0.59 0.59 0.58 0.58 0.58 0.57 0.57 0.58 0.57 0.54 0.52 0.53 0.53 0.51 0.49 0.47 0.45 0.48 0.46 0.42 0.42 0.43 0.50 0.54 0.54 0.32 0.19 0.39 0.35 0.36 0.39 0.36 0.30 0.38 0.47 0.53 0.51 0.52 0.51 0.54 0.62 0.67 0.72 0.77 0.78 0.78
0.63 0.60 0.59 0.58 0.57 0.56 0.56 0.57 0.57 0.57 0.56 0.54 0.51 0.49 0.49 0.48 0.46 0.43 0.42 0.46 0.46 0.46 0.54 0.57 0.62 0.52 0.25 0.42 0.44 0.34 0.40 0.32 0.30 0.34 0.38 0.47 0.49 0.48 0.49 0.55 0.61 0.65 0.69 0.58 0.74 0.77 0.84
0.65 0.62 0.61 0.59 0.57 0.56 0.55 0.54 0.53 0.53 0.54 0.55 0.54 0.52 0.49 0.47 0.45 0.43 0.39 0.39 0.47 0.59 0.64 0.66 0.55 0.44 0.21 0.50 0.32 0.41 0.38 0.30 0.26 0.30 0.40 0.43 0.42 0.40 0.48 0.44 0.50 0.63 0.47 0.59 0.65 0.78 0.81
0.68 0.65 0.63 0.61 0.59 0.58 0.57 0.55 0.52 0.49 0.49 0.51 0.52 0.53 0.51 0.48 0.46 0.43 0.38 0.38 0.50 0.67 0.74 0.77 0.68 0.40 0.34 0.26 0.40 0.39 0.40 0.39 0.28 0.24 0.32 0.34 0.34 0.35 0.41 0.39 0.33 0.46 0.51 0.60 0.61 0.72 0.76
0.70 0.67 0.64 0.62 0.60 0.59 0.58 0.56 0.52 0.50 0.48 0.47 0.47 0.48 0.50 0.48 0.47 0.44 0.40 0.30 0.29 0.32 0.43 0.30 0.29 0.33 0.29 0.31 0.45 0.35 0.40 0.35 0.29 0.20 0.20 0.27 0.26 0.28 0.36 0.41 0.41 0.53 0.56 0.53 0.67 0.80 0.71
0.74 0.71 0.67 0.64 0.62 0.60 0.58 0.54 0.54 0.53 0.51 0.48 0.46 0.45 0.47 0.46 0.45 0.44 0.42 0.25 0.31 0.34 0.22 0.30 0.30 0.29 0.31 0.32 0.24 0.33 0.41 0.31 0.25 0.19 0.18 0.21 0.21 0.34 0.42 0.44 0.41 0.42 0.51 0.54 0.68 0.75 0.79
0.76 0.73 0.72 0.69 0.66 0.62 0.60 0.55 0.55 0.53 0.51 0.48 0.46 0.44 0.45 0.42 0.41 0.45 0.29 0.25 0.39 0.33 0.23 0.20 0.27 0.29 0.32 0.33 0.19 0.25 0.38 0.32 0.24 0.21 0.17 0.17 0.24 0.35 0.39 0.40 0.40 0.41 0.43 0.52 0.54 0.67 0.77
0.79 0.77 0.75 0.71 0.69 0.65 0.62 0.59 0.56 0.53 0.49 0.47 0.45 0.44 0.44 0.40 0.28 0.31 0.26 0.35 0.34 0.36 0.21 0.18 0.20 0.33 0.39 0.33 0.20 0.28 0.41 0.33 0.26 0.24 0.21 0.20 0.27 0.33 0.34 0.36 0.41 0.36 0.43 0.51 0.45 0.46 0.40
0.83 0.80 0.77 0.74 0.72 0.67 0.63 0.61 0.58 0.55 0.51 0.47 0.45 0.42 0.46 0.43 0.30 0.23 0.25 0.33 0.33 0.39 0.12 0.20 0.23 0.40 0.40 0.30 0.20 0.21 0.41 0.36 0.26 0.25 0.23 0.19 0.23 0.28 0.31 0.32 0.39 0.36 0.44 0.45 0.44 0.42 0.44
0.84 0.81 0.78 0.75 0.75 0.72 0.69 0.63 0.61 0.59 0.53 0.48 0.45 0.40 0.46 0.38 0.36 0.27 0.34 0.35 0.35 0.22 0.13 0.18 0.26 0.26 0.27 0.31 0.23 0.29 0.33 0.41 0.35 0.27 0.27 0.21 0.27 0.30 0.30 0.37 0.39 0.41 0.41 0.42 0.43 0.41 0.32
0.88 0.85 0.82 0.79 0.78 0.74 0.72 0.66 0.63 0.63 0.57 0.48 0.46 0.39 0.41 0.44 0.22 0.31 0.30 0.24 0.19 0.15 0.23 0.17 0.23 0.26 0.24 0.25 0.22 0.25 0.29 0.32 0.25 0.18 0.18 0.21 0.20 0.29 0.34 0.31 0.39 0.37 0.37 0.29 0.27 0.30 0.28
0.95 0.92 0.87 0.87 0.84 0.79 0.75 0.69 0.66 0.64 0.59 0.51 0.48 0.41 0.39 0.37 0.39 0.38 0.24 0.19 0.15 0.19 0.18 0.24 0.24 0.24 0.22 0.27 0.23 0.21 0.31 0.32 0.31 0.23 0.15 0.13 0.14 0.22 0.31 0.30 0.31 0.31 0.34 0.27 0.23 0.24 0.28
0.98 0.96 0.93 0.89 0.86 0.84 0.78 0.73 0.70 0.67 0.61 0.54 0.52 0.41 0.37 0.40 0.51 0.41 0.20 0.15 0.16 0.21 0.26 0.24 0.25 0.20 0.20 0.25 0.29 0.26 0.30 0.31 0.34 0.26 0.13 0.12 0.12 0.20 0.28 0.32 0.33 0.29 0.28 0.37 0.32 0.32 0.27
1.00 0.97 0.94 0.92 0.90 0.86 0.81 0.78 0.74 0.69 0.63 0.57 0.48 0.42 0.34 0.56 0.62 0.38 0.20 0.16 0.18 0.23 0.29 0.25 0.20 0.24 0.18 0.24 0.27 0.27 0.27 0.33 0.32 0.36 0.29 0.16 0.11 0.15 0.20 0.29 0.32 0.30 0.33 0.29 0.32 0.23 0.21
0.99 0.96 0.94 0.91 0.87 0.84 0.82 0.79 0.75 0.70 0.65 0.59 0.47 0.33 0.41 0.62 0.52 0.33 0.19 0.17 0.18 0.21 0.24 0.20 0.21 0.24 0.23 0.23 0.26 0.27 0.25 0.30 0.32 0.32 0.35 0.30 0.19 0.15 0.18 0.16 0.20 0.25 0.26 0.30 0.31 0.30 0.23
0.99 0.95 0.93 0.90 0.87 0.85 0.83 0.81 0.78 0.72 0.68 0.58 0.45 0.28 0.52 0.56 0.31 0.31 0.24 0.22 0.23 0.21 0.21 0.21 0.23 0.23 0.21 0.21 0.22 0.26 0.25 0.27 0.37 0.38 0.33 0.33 0.26 0.16 0.16 0.21 0.21 0.23 0.23 0.26 0.25 0.25 0.29
0.95 0.90 0.89 0.84 0.80 0.81 0.79 0.79 0.76 0.73 0.69 0.58 0.38 0.37 0.48 0.48 0.26 0.28 0.34 0.31 0.30 0.26 0.23 0.23 0.21 0.22 0.26 0.25 0.22 0.27 0.30 0.33 0.39 0.43 0.41 0.42 0.29 0.19 0.15 0.20 0.22 0.21 0.24 0.27 0.29 0.30 0.27
0.82 0.82 0.83 0.79 0.78 0.75 0.74 0.71 0.72 0.70 0.66 0.57 0.40 0.27 0.43 0.51 0.42 0.35 0.32 0.31 0.30 0.37 0.36 0.38 0.34 0.34 0.30 0.28 0.28 0.26 0.32 0.43 0.52 0.58 0.64 0.54 0.37 0.25 0.16 0.14 0.20 0.19 0.22 0.28 0.27 0.25 0.25
0.88 0.89 0.87 0.81 0.80 0.81 0.79 0.75 0.73 0.67 0.63 0.55 0.43 0.36 0.50 0.37 0.44 0.42 0.38 0.34 0.31 0.32 0.38 0.38 0.33 0.32 0.30 0.27 0.26 0.24 0.31 0.38 0.53 0.66 0.67 0.42 0.29 0.28 0.23 0.20 0.20 0.21 0.21 0.24 0.25 0.27 0.23
0.90 0.88 0.86 0.84 0.82 0.81 0.79 0.76 0.75 0.73 0.68 0.52 0.40 0.42 0.48 0.42 0.44 0.42 0.38 0.32 0.34 0.37 0.36 0.33 0.33 0.34 0.38 0.31 0.31 0.26 0.33 0.37 0.46 0.61 0.65 0.59 0.29 0.27 0.23 0.23 0.19 0.22 0.25 0.26 0.27 0.30 0.29
0.79 0.77 0.76 0.76 0.77 0.74 0.73 0.71 0.70 0.73 0.67 0.47 0.48 0.52 0.45 0.34 0.35 0.34 0.32 0.35 0.35 0.41 0.39 0.39 0.38 0.38 0.40 0.41 0.50 0.51 0.49 0.52 0.58 0.55 0.61 0.61 0.46 0.29 0.21 0.25 0.21 0.18 0.22 0.25 0.28 0.31 0.31
0.71 0.70 0.70 0.71 0.71 0.71 0.71 0.73 0.71 0.69 0.69 0.57 0.47 0.42 0.36 0.27 0.29 0.29 0.33 0.36 0.32 0.39 0.37 0.40 0.44 0.41 0.55 0.63 0.58 0.53 0.53 0.53 0.59 0.65 0.67 0.64 0.57 0.49 0.30 0.27 0.20 0.22 0.28 0.29 0.30 0.36 0.40
0.66 0.66 0.67 0.69 0.71 0.72 0.69 0.71 0.72 0.69 0.73 0.64 0.57 0.43 0.35 0.27 0.33 0.29 0.30 0.32 0.33 0.34 0.36 0.40 0.47 0.56 0.61 0.62 0.47 0.39 0.40 0.45 0.52 0.65 0.70 0.80 0.63 0.51 0.37 0.27 0.27 0.33 0.37 0.36 0.34 0.39 0.54
0.67 0.66 0.66 0.68 0.69 0.70 0.71 0.70 0.71 0.65 0.70 0.71 0.64 0.59 0.40 0.26 0.24 0.36 0.32 0.33 0.28 0.29 0.30 0.39 0.50 0.55 0.69 0.60 0.51 0.35 0.31 0.39 0.46 0.53 0.71 0.75 0.74 0.57 0.44 0.32 0.25 0.34 0.48 0.56 0.54 0.41 0.61
0.72 0.72 0.71 0.69 0.70 0.70 0.70 0.70 0.70 0.71 0.68 0.67 0.64 0.64 0.52 0.34 0.34 0.36 0.32 0.36 0.39 0.35 0.31 0.40 0.46 0.59 0.73 0.56 0.47 0.41 0.37 0.45 0.44 0.41 0.56 0.67 0.68 0.56 0.50 0.36 0.40 0.55 0.61 0.66 0.40 0.42 0.70
0.73 0.71 0.72 0.69 0.69 0.68 0.69 0.69 0.70 0.71 0.69 0.66 0.63 0.66 0.50 0.37 0.34 0.40 0.43 0.39 0.39 0.37 0.32 0.43 0.49 0.64 0.65 0.55 0.53 0.48 0.44 0.48 0.48 0.50 0.52 0.59 0.61 0.65 0.61 0.43 0.38 0.71 0.64 0.46 0.58 0.73 0.76
0.71 0.70 0.71 0.70 0.68 0.69 0.68 0.67 0.70 0.70 0.69 0.70 0.59 0.66 0.65 0.48 0.37 0.52 0.48 0.45 0.46 0.46 0.40 0.46 0.53 0.59 0.70 0.62 0.62 0.62 0.54 0.54 0.55 0.48 0.66 0.55 0.69 0.65 0.69 0.60 0.79 0.84 0.77 0.83 0.81 0.70 0.73

GFSGBSN_prec_pwat_003.txt.gz
Precipitable_Water
0.59 0.58 0.58 0.58 0.58 0.58 0.58 0.59 0.60 0.59 0.56 0.54 0.55 0.55 0.53 0.51 0.49 0.49 0.50 0.49 0.44 0.42 0.43 0.43 0.49 0.53 0.43 0.23 0.19 0.36 0.41 0.50 0.49 0.44 0.37 0.42 0.45 0.46 0.46 0.51 0.55 0.57 0.60 0.67 0.70 0.75 0.82
0.63 0.61 0.59 0.58 0.57 0.56 0.56 0.56 0.57 0.58 0.59 0.58 0.54 0.53 0.52 0.52 0.52 0.48 0.46 0.48 0.49 0.46 0.44 0.46 0.48 0.53 0.34 0.15 0.32 0.39 0.44 0.49 0.47 0.38 0.38 0.42 0.44 0.49 0.47 0.50 0.55 0.57 0.56 0.61 0.68 0.72 0.78
0.66 0.64 0.63 0.61 0.59 0.57 0.56 0.55 0.55 0.53 0.54 0.56 0.57 0.55 0.52 0.51 0.49 0.46 0.44 0.43 0.46 0.49 0.50 0.52 0.55 0.53 0.32 0.18 0.33 0.39 0.39 0.38 0.46 0.36 0.30 0.42 0.47 0.47 0.49 0.48 0.56 0.63 0.56 0.67 0.76 0.72 0.73
0.67 0.66 0.64 0.62 0.59 0.57 0.57 0.55 0.53 0.51 0.51 0.51 0.52 0.54 0.54 0.53 0.50 0.46 0.41 0.41 0.42 0.46 0.56 0.64 0.66 0.58 0.26 0.38 0.46 0.47 0.40 0.34 0.41 0.37 0.34 0.40 0.50 0.47 0.46 0.53 0.58 0.58 0.61 0.52 0.73 0.77 0.81
0.72 0.70 0.67 0.65 0.62 0.59 0.57 0.54 0.52 0.53 0.52 0.50 0.49 0.48 0.48 0.49 0.50 0.48 0.43 0.41 0.44 0.52 0.61 0.69 0.61 0.51 0.27 0.46 0.39 0.45 0.44 0.27 0.32 0.36 0.37 0.39 0.41 0.44 0.46 0.43 0.45 0.56 0.44 0.55 0.57 0.82 0.80
0.77 0.76 0.73 0.70 0.67 0.65 0.61 0.58 0.53 0.53 0.53 0.51 0.48 0.46 0.45 0.45 0.46 0.45 0.42 0.46 0.53 0.59 0.66 0.73 0.69 0.41 0.39 0.30 0.40 0.41 0.45 0.33 0.28 0.28 0.28 0.32 0.34 0.34 0.40 0.40 0.30 0.41 0.46 0.54 0.51 0.72 0.82
0.81 0.78 0.76 0.76 0.73 0.69 0.65 0.61 0.56 0.55 0.53 0.50 0.47 0.46 0.45 0.41 0.42 0.44 0.42 0.38 0.30 0.26 0.36 0.26 0.28 0.28 0.30 0.39 0.41 0.38 0.41 0.36 0.28 0.24 0.20 0.26 0.24 0.26 0.33 0.40 0.43 0.45 0.50 0.52 0.64 0.75 0.72
0.84 0.82 0.80 0.77 0.73 0.72 0.68 0.64 0.61 0.58 0.55 0.51 0.46 0.44 0.44 0.40 0.39 0.43 0.38 0.23 0.29 0.29 0.18 0.23 0.23 0.25 0.29 0.33 0.24 0.24 0.39 0.29 0.26 0.18 0.18 0.19 0.19 0.32 0.38 0.41 0.40 0.44 0.48 0.52 0.66 0.78 0.74
0.88 0.86 0.83 0.81 0.77 0.75 0.70 0.67 0.63 0.60 0.58 0.54 0.47 0.45 0.45 0.40 0.38 0.41 0.27 0.27 0.40 0.31 0.19 0.18 0.24 0.25 0.34 0.35 0.24 0.20 0.27 0.27 0.25 0.20 0.18 0.15 0.21 0.30 0.35 0.36 0.37 0.38 0.39 0.49 0.54 0.71 0.78
0.89 0.86 0.83 0.80 0.77 0.77 0.74 0.72 0.67 0.62 0.59 0.58 0.50 0.46 0.46 0.41 0.27 0.28 0.26 0.35 0.34 0.32 0.18 0.17 0.21 0.30 0.37 0.37 0.23 0.30 0.28 0.27 0.25 0.20 0.20 0.19 0.22 0.27 0.30 0.34 0.38 0.32 0.39 0.46 0.55 0.60 0.50
0.96 0.91 0.88 0.84 0.81 0.79 0.76 0.74 0.69 0.66 0.62 0.58 0.54 0.47 0.48 0.47 0.32 0.24 0.25 0.33 0.35 0.35 0.10 0.20 0.24 0.39 0.35 0.29 0.27 0.22 0.30 0.29 0.24 0.21 0.21 0.17 0.17 0.24 0.26 0.30 0.40 0.38 0.44 0.43 0.51 0.58 0.50
0.99 0.99 0.96 0.91 0.87 0.84 0.80 0.78 0.73 0.70 0.67 0.61 0.54 0.49 0.53 0.45 0.42 0.31 0.34 0.34 0.35 0.20 0.11 0.18 0.28 0.26 0.25 0.27 0.28 0.30 0.23 0.32 0.35 0.25 0.23 0.21 0.21 0.22 0.28 0.36 0.40 0.46 0.43 0.42 0.48 0.53 0.36
1.03 1.02 0.99 0.97 0.95 0.90 0.84 0.80 0.76 0.72 0.69 0.64 0.57 0.52 0.48 0.51 0.30 0.40 0.35 0.25 0.19 0.15 0.22 0.18 0.22 0.27 0.25 0.20 0.26 0.25 0.21 0.23 0.23 0.21 0.20 0.22 0.19 0.23 0.25 0.31 0.40 0.42 0.39 0.31 0.28 0.33 0.29
1.06 1.03 1.00 0.98 0.94 0.91 0.89 0.84 0.80 0.77 0.71 0.63 0.58 0.52 0.49 0.48 0.49 0.48 0.30 0.20 0.16 0.19 0.18 0.25 0.25 0.27 0.22 0.22 0.25 0.26 0.22 0.20 0.29 0.29 0.23 0.18 0.14 0.20 0.25 0.27 0.33 0.37 0.36 0.31 0.25 0.25 0.29
1.06 1.04 1.03 1.00 0.96 0.93 0.88 0.84 0.84 0.80 0.75 0.66 0.60 0.52 0.48 0.50 0.61 0.52 0.26 0.18 0.18 0.20 0.27 0.25 0.24 0.20 0.19 0.23 0.23 0.24 0.23 0.20 0.26 0.32 0.23 0.20 0.17 0.22 0.24 0.31 0.34 0.36 0.33 0.39 0.33 0.35 0.28
1.06 1.02 1.00 0.97 0.95 0.91 0.89 0.84 0.85 0.82 0.78 0.70 0.57 0.51 0.44 0.66 0.72 0.51 0.27 0.20 0.20 0.25 0.28 0.26 0.20 0.23 0.19 0.23 0.21 0.22 0.24 0.29 0.30 0.37 0.38 0.25 0.15 0.17 0.23 0.29 0.35 0.33 0.39 0.32 0.32 0.25 0.25
1.03 0.99 0.98 0.94 0.91 0.88 0.85 0.86 0.84 0.81 0.78 0.72 0.56 0.42 0.50 0.74 0.64 0.42 0.28 0.24 0.22 0.24 0.25 0.21 0.21 0.23 0.24 0.22 0.24 0.22 0.24 0.29 0.30 0.34 0.40 0.36 0.23 0.14 0.19 0.21 0.24 0.31 0.30 0.35 0.35 0.30 0.24
0.99 0.95 0.91 0.88 0.88 0.84 0.83 0.83 0.81 0.78 0.78 0.70 0.55 0.38 0.56 0.68 0.42 0.39 0.31 0.30 0.29 0.25 0.24 0.22 0.24 0.24 0.22 0.23 0.21 0.21 0.22 0.30 0.37 0.32 0.29 0.37 0.33 0.23 0.16 0.21 0.21 0.28 0.31 0.31 0.28 0.25 0.27
0.95 0.94 0.90 0.88 0.89 0.85 0.82 0.82 0.79 0.79 0.77 0.65 0.45 0.43 0.52 0.57 0.35 0.35 0.38 0.36 0.34 0.31 0.29 0.27 0.23 0.24 0.24 0.21 0.20 0.22 0.24 0.33 0.39 0.36 0.35 0.35 0.29 0.24 0.23 0.24 0.23 0.19 0.22 0.30 0.33 0.33 0.27
0.88 0.89 0.90 0.89 0.87 0.84 0.83 0.83 0.82 0.80 0.76 0.63 0.44 0.32 0.42 0.56 0.50 0.44 0.41 0.37 0.35 0.41 0.35 0.33 0.31 0.31 0.29 0.25 0.30 0.26 0.26 0.34 0.47 0.50 0.53 0.51 0.39 0.31 0.22 0.20 0.20 0.19 0.20 0.22 0.26 0.25 0.25
0.81 0.81 0.80 0.80 0.79 0.78 0.80 0.82 0.77 0.75 0.75 0.61 0.44 0.35 0.49 0.38 0.47 0.51 0.49 0.42 0.36 0.34 0.42 0.42 0.36 0.32 0.30 0.25 0.26 0.25 0.28 0.29 0.44 0.48 0.64 0.53 0.37 0.37 0.32 0.29 0.25 0.20 0.19 0.21 0.21 0.20 0.22
0.72 0.73 0.74 0.75 0.74 0.74 0.74 0.75 0.74 0.76 0.77 0.59 0.43 0.43 0.46 0.39 0.41 0.40 0.45 0.42 0.38 0.41 0.40 0.36 0.36 0.38 0.37 0.32 0.32 0.30 0.31 0.30 0.36 0.52 0.56 0.60 0.44 0.42 0.31 0.37 0.30 0.19 0.21 0.22 0.24 0.24 0.25
0.70 0.69 0.70 0.69 0.69 0.70 0.72 0.72 0.72 0.73 0.72 0.56 0.56 0.52 0.45 0.37 0.33 0.33 0.35 0.37 0.40 0.44 0.42 0.44 0.42 0.38 0.34 0.37 0.43 0.45 0.44 0.44 0.47 0.48 0.56 0.59 0.53 0.49 0.31 0.31 0.27 0.24 0.20 0.23 0.25 0.30 0.27
0.67 0.66 0.66 0.66 0.68 0.69 0.71 0.72 0.72 0.72 0.72 0.62 0.57 0.52 0.38 0.28 0.31 0.30 0.34 0.37 0.37 0.41 0.39 0.40 0.44 0.39 0.40 0.49 0.50 0.50 0.47 0.47 0.49 0.51 0.56 0.57 0.53 0.58 0.43 0.41 0.27 0.25 0.29 0.27 0.23 0.25 0.29
0.68 0.69 0.69 0.67 0.68 0.68 0.70 0.71 0.74 0.73 0.73 0.65 0.65 0.53 0.42 0.30 0.33 0.32 0.31 0.34 0.34 0.36 0.35 0.34 0.41 0.44 0.48 0.44 0.43 0.41 0.38 0.40 0.41 0.49 0.54 0.63 0.55 0.51 0.47 0.41 0.39 0.37 0.35 0.28 0.25 0.23 0.35
0.71 0.70 0.72 0.73 0.72 0.70 0.72 0.71 0.70 0.71 0.72 0.69 0.65 0.66 0.51 0.35 0.26 0.32 0.34 0.36 0.28 0.29 0.31 0.32 0.41 0.47 0.53 0.49 0.49 0.38 0.30 0.32 0.37 0.45 0.63 0.61 0.64 0.55 0.57 0.47 0.33 0.42 0.54 0.54 0.45 0.26 0.43
0.67 0.70 0.73 0.73 0.73 0.70 0.71 0.70 0.71 0.72 0.72 0.69 0.64 0.68 0.54 0.37 0.39 0.34 0.28 0.28 0.41 0.35 0.32 0.34 0.38 0.44 0.63 0.51 0.44 0.43 0.37 0.42 0.34 0.37 0.42 0.45 0.51 0.51 0.58 0.56 0.49 0.60 0.65 0.63 0.31 0.31 0.48
0.71 0.72 0.72 0.71 0.71 0.70 0.69 0.68 0.66 0.68 0.73 0.71 0.63 0.68 0.57 0.43 0.39 0.38 0.36 0.35 0.41 0.41 0.34 0.35 0.35 0.49 0.57 0.50 0.51 0.50 0.45 0.46 0.44 0.48 0.44 0.41 0.39 0.48 0.70 0.59 0.45 0.77 0.72 0.52 0.54 0.63 0.63
0.71 0.73 0.69 0.69 0.70 0.71 0.70 0.71 0.68 0.70 0.69 0.69 0.57 0.67 0.68 0.52 0.39 0.46 0.46 0.46 0.43 0.45 0.42 0.41 0.40 0.50 0.58 0.54 0.58 0.59 0.53 0.57 0.54 0.40 0.57 0.42 0.46 0.51 0.68 0.67 0.85 0.86 0.84 0.84 0.80 0.72 0.74

GFSGBSN_prec_pwat_006.txt.gz
Precipitable_Water
0.65 0.63 0.62 0.61 0.59 0.57 0.56 0.55 0.56 0.54 0.54 0.55 0.53 0.51 0.51 0.51 0.52 0.50 0.48 0.48 0.47 0.49 0.47 0.46 0.47 0.45 0.39 0.28 0.21 0.38 0.40 0.47 0.45 0.48 0.39 0.46 0.46 0.51 0.45 0.52 0.55 0.56 0.57 0.62 0.64 0.75 0.78
0.66 0.63 0.63 0.61 0.59 0.58 0.58 0.55 0.54 0.53 0.53 0.53 0.54 0.54 0.51 0.49 0.48 0.47 0.47 0.48 0.46 0.45 0.47 0.50 0.51 0.50 0.35 0.16 0.30 0.40 0.51 0.51 0.46 0.37 0.33 0.40 0.46 0.48 0.45 0.48 0.53 0.56 0.57 0.59 0.57 0.63 0.73
0.74 0.72 0.69 0.67 0.64 0.61 0.59 0.57 0.54 0.52 0.53 0.52 0.52 0.51 0.51 0.51 0.49 0.45 0.43 0.44 0.44 0.42 0.44 0.48 0.59 0.52 0.36 0.23 0.32 0.34 0.39 0.42 0.47 0.37 0.29 0.37 0.45 0.45 0.48 0.49 0.56 0.57 0.52 0.65 0.64 0.67 0.69
0.77 0.75 0.73 0.71 0.68 0.66 0.62 0.60 0.58 0.54 0.51 0.49 0.48 0.46 0.44 0.46 0.48 0.49 0.45 0.44 0.43 0.44 0.48 0.54 0.60 0.56 0.31 0.46 0.45 0.40 0.45 0.39 0.39 0.46 0.36 0.40 0.43 0.45 0.42 0.53 0.54 0.52 0.56 0.51 0.63 0.72 0.76
0.81 0.78 0.76 0.76 0.73 0.70 0.65 0.61 0.59 0.57 0.55 0.52 0.49 0.45 0.42 0.42 0.42 0.44 0.45 0.45 0.49 0.57 0.58 0.60 0.53 0.48 0.29 0.52 0.40 0.46 0.44 0.30 0.33 0.39 0.34 0.35 0.38 0.42 0.45 0.45 0.44 0.52 0.46 0.48 0.61 0.74 0.79
0.88 0.85 0.83 0.82 0.77 0.74 0.71 0.66 0.61 0.58 0.56 0.54 0.53 0.48 0.43 0.41 0.39 0.39 0.40 0.44 0.57 0.64 0.66 0.68 0.62 0.39 0.38 0.31 0.48 0.44 0.48 0.33 0.29 0.34 0.26 0.27 0.31 0.34 0.39 0.38 0.31 0.42 0.46 0.51 0.50 0.65 0.77
0.93 0.90 0.87 0.83 0.81 0.77 0.75 0.71 0.68 0.62 0.58 0.55 0.51 0.47 0.43 0.41 0.39 0.38 0.38 0.35 0.38 0.39 0.46 0.29 0.29 0.28 0.29 0.37 0.45 0.43 0.45 0.28 0.28 0.28 0.15 0.20 0.21 0.25 0.34 0.39 0.42 0.46 0.51 0.51 0.58 0.78 0.75
0.98 0.92 0.88 0.84 0.81 0.79 0.77 0.73 0.71 0.66 0.62 0.56 0.54 0.51 0.45 0.40 0.38 0.40 0.37 0.23 0.28 0.29 0.19 0.24 0.23 0.23 0.25 0.30 0.23 0.28 0.41 0.31 0.22 0.18 0.19 0.17 0.17 0.26 0.34 0.39 0.40 0.45 0.44 0.48 0.59 0.77 0.73
1.01 0.98 0.95 0.92 0.85 0.83 0.80 0.77 0.74 0.70 0.66 0.61 0.55 0.54 0.49 0.42 0.38 0.42 0.29 0.30 0.36 0.31 0.20 0.18 0.22 0.21 0.24 0.26 0.24 0.25 0.32 0.30 0.25 0.18 0.17 0.16 0.16 0.25 0.29 0.32 0.37 0.41 0.42 0.48 0.59 0.68 0.72
1.04 1.01 1.01 0.99 0.95 0.89 0.86 0.82 0.80 0.74 0.70 0.67 0.61 0.58 0.53 0.45 0.35 0.33 0.32 0.38 0.38 0.34 0.17 0.18 0.22 0.27 0.37 0.36 0.26 0.31 0.30 0.28 0.25 0.20 0.20 0.15 0.18 0.21 0.25 0.30 0.37 0.35 0.42 0.50 0.57 0.61 0.50
1.06 1.05 1.04 1.02 0.98 0.98 0.93 0.87 0.84 0.79 0.77 0.70 0.64 0.57 0.58 0.54 0.37 0.31 0.35 0.35 0.37 0.36 0.13 0.24 0.25 0.42 0.36 0.28 0.30 0.31 0.31 0.27 0.23 0.22 0.23 0.17 0.14 0.17 0.21 0.26 0.34 0.35 0.44 0.45 0.48 0.55 0.58
1.09 1.08 1.07 1.04 1.02 0.99 0.95 0.91 0.87 0.83 0.80 0.76 0.70 0.61 0.61 0.52 0.49 0.40 0.40 0.38 0.41 0.24 0.16 0.21 0.28 0.25 0.25 0.27 0.29 0.31 0.26 0.30 0.30 0.26 0.26 0.22 0.22 0.17 0.19 0.25 0.35 0.40 0.43 0.46 0.47 0.46 0.41
1.12 1.08 1.03 1.01 1.01 0.98 0.97 0.95 0.89 0.86 0.83 0.78 0.71 0.63 0.57 0.57 0.39 0.45 0.43 0.31 0.23 0.19 0.27 0.22 0.23 0.27 0.24 0.22 0.25 0.28 0.23 0.21 0.20 0.20 0.20 0.20 0.20 0.17 0.17 0.21 0.32 0.38 0.40 0.34 0.33 0.34 0.35
1.15 1.10 1.04 0.99 0.97 0.96 0.96 0.93 0.90 0.87 0.86 0.79 0.71 0.63 0.59 0.56 0.55 0.49 0.38 0.25 0.19 0.23 0.24 0.29 0.29 0.29 0.24 0.25 0.23 0.26 0.26 0.20 0.23 0.26 0.24 0.20 0.14 0.18 0.18 0.17 0.28 0.33 0.35 0.31 0.27 0.29 0.34
1.11 1.09 1.04 0.99 0.97 0.94 0.92 0.90 0.85 0.85 0.83 0.80 0.72 0.60 0.56 0.57 0.63 0.56 0.34 0.21 0.22 0.25 0.29 0.25 0.26 0.25 0.25 0.27 0.24 0.25 0.25 0.25 0.24 0.27 0.22 0.23 0.20 0.25 0.19 0.20 0.25 0.31 0.31 0.40 0.36 0.39 0.32
1.05 1.05 1.02 0.99 0.95 0.91 0.90 0.85 0.84 0.84 0.83 0.78 0.67 0.61 0.56 0.66 0.72 0.56 0.33 0.24 0.24 0.26 0.29 0.33 0.25 0.26 0.23 0.23 0.25 0.23 0.23 0.27 0.26 0.30 0.34 0.31 0.23 0.27 0.25 0.23 0.21 0.28 0.37 0.33 0.35 0.29 0.30
0.96 0.93 0.93 0.89 0.87 0.85 0.84 0.81 0.78 0.80 0.77 0.74 0.63 0.50 0.63 0.80 0.78 0.54 0.33 0.30 0.29 0.28 0.29 0.30 0.27 0.26 0.27 0.26 0.28 0.25 0.25 0.29 0.30 0.32 0.36 0.35 0.31 0.24 0.27 0.19 0.16 0.20 0.27 0.35 0.38 0.35 0.29
0.84 0.81 0.79 0.79 0.78 0.79 0.79 0.77 0.77 0.78 0.75 0.67 0.53 0.39 0.61 0.76 0.51 0.46 0.40 0.39 0.38 0.32 0.29 0.27 0.28 0.26 0.26 0.30 0.28 0.26 0.26 0.28 0.35 0.35 0.34 0.39 0.36 0.25 0.19 0.21 0.20 0.23 0.25 0.34 0.31 0.31 0.35
0.75 0.76 0.76 0.76 0.76 0.75 0.75 0.73 0.74 0.75 0.74 0.59 0.44 0.39 0.47 0.55 0.38 0.39 0.46 0.43 0.42 0.39 0.32 0.28 0.26 0.28 0.28 0.26 0.25 0.27 0.27 0.30 0.31 0.35 0.35 0.39 0.34 0.30 0.27 0.21 0.22 0.18 0.23 0.29 0.34 0.37 0.33
0.74 0.74 0.74 0.74 0.73 0.71 0.70 0.69 0.71 0.72 0.73 0.63 0.45 0.31 0.34 0.48 0.42 0.45 0.44 0.48 0.46 0.45 0.39 0.34 0.31 0.30 0.25 0.26 0.28 0.27 0.28 0.29 0.34 0.36 0.43 0.46 0.33 0.29 0.24 0.25 0.25 0.20 0.19 0.22 0.26 0.28 0.31
0.66 0.67 0.69 0.70 0.71 0.71 0.71 0.69 0.71 0.72 0.70 0.63 0.48 0.37 0.48 0.28 0.44 0.51 0.54 0.52 0.45 0.41 0.47 0.42 0.37 0.38 0.32 0.28 0.30 0.29 0.32 0.36 0.41 0.45 0.51 0.56 0.39 0.40 0.35 0.30 0.32 0.29 0.25 0.22 0.20 0.23 0.28
0.68 0.69 0.69 0.68 0.69 0.70 0.70 0.70 0.72 0.70 0.71 0.56 0.41 0.41 0.50 0.44 0.38 0.31 0.33 0.41 0.44 0.42 0.46 0.46 0.42 0.39 0.37 0.35 0.34 0.31 0.32 0.31 0.30 0.42 0.41 0.54 0.46 0.46 0.41 0.39 0.35 0.31 0.32 0.26 0.22 0.21 0.23
0.69 0.69 0.68 0.69 0.69 0.69 0.68 0.69 0.72 0.74 0.72 0.54 0.54 0.54 0.44 0.35 0.35 0.35 0.33 0.35 0.39 0.51 0.50 0.48 0.53 0.49 0.48 0.47 0.52 0.51 0.51 0.48 0.49 0.43 0.45 0.50 0.51 0.51 0.38 0.44 0.40 0.33 0.33 0.33 0.26 0.22 0.22
0.71 0.71 0.71 0.70 0.71 0.68 0.68 0.67 0.70 0.73 0.73 0.65 0.59 0.52 0.42 0.30 0.32 0.34 0.36 0.41 0.37 0.39 0.41 0.48 0.50 0.46 0.53 0.57 0.52 0.47 0.42 0.39 0.43 0.48 0.54 0.55 0.57 0.57 0.45 0.55 0.34 0.33 0.40 0.38 0.31 0.24 0.25
0.69 0.68 0.69 0.72 0.71 0.72 0.72 0.70 0.71 0.73 0.74 0.69 0.67 0.55 0.45 0.33 0.36 0.36 0.35 0.35 0.39 0.38 0.39 0.41 0.45 0.47 0.54 0.48 0.40 0.36 0.36 0.38 0.35 0.39 0.43 0.54 0.53 0.52 0.43 0.41 0.47 0.46 0.50 0.37 0.32 0.27 0.27
0.69 0.70 0.67 0.68 0.70 0.73 0.73 0.72 0.71 0.72 0.72 0.70 0.67 0.68 0.53 0.38 0.34 0.40 0.36 0.41 0.34 0.35 0.32 0.37 0.47 0.53 0.49 0.41 0.41 0.37 0.31 0.33 0.32 0.36 0.49 0.52 0.55 0.51 0.49 0.40 0.35 0.55 0.73 0.71 0.62 0.31 0.35
0.66 0.70 0.72 0.71 0.71 0.72 0.71 0.70 0.71 0.71 0.73 0.71 0.65 0.71 0.57 0.41 0.42 0.44 0.35 0.35 0.42 0.40 0.37 0.39 0.44 0.41 0.53 0.50 0.41 0.40 0.37 0.40 0.33 0.38 0.44 0.49 0.50 0.39 0.46 0.45 0.47 0.71 0.72 0.74 0.45 0.32 0.37
0.67 0.70 0.73 0.73 0.71 0.70 0.71 0.70 0.71 0.70 0.68 0.68 0.64 0.73 0.58 0.46 0.44 0.48 0.46 0.38 0.38 0.42 0.38 0.40 0.39 0.46 0.48 0.50 0.50 0.44 0.45 0.45 0.40 0.53 0.54 0.46 0.44 0.42 0.52 0.51 0.40 0.77 0.72 0.56 0.76 0.75 0.65
0.64 0.68 0.73 0.74 0.69 0.69 0.70 0.72 0.69 0.70 0.68 0.72 0.58 0.71 0.73 0.52 0.45 0.54 0.51 0.49 0.42 0.39 0.42 0.44 0.41 0.50 0.49 0.57 0.61 0.63 0.57 0.67 0.49 0.41 0.69 0.52 0.53 0.49 0.53 0.46 0.75 0.83 0.79 0.92 0.95 0.87 0.81

GFSGBSN_prec_pwat_009.txt.gz
Precipitable_Water
0.71 0.67 0.64 0.62 0.60 0.58 0.56 0.55 0.54 0.52 0.52 0.53 0.52 0.51 0.51 0.49 0.48 0.47 0.48 0.50 0.47 0.44 0.43 0.45 0.46 0.45 0.38 0.28 0.25 0.47 0.42 0.43 0.48 0.42 0.49 0.51 0.57 0.60 0.58 0.53 0.56 0.54 0.62 0.62 0.66 0.73 0.77
0.75 0.74 0.71 0.68 0.64 0.61 0.58 0.57 0.55 0.52 0.51 0.50 0.49 0.48 0.47 0.46 0.46 0.46 0.47 0.47 0.46 0.44 0.43 0.43 0.47 0.51 0.36 0.21 0.32 0.41 0.38 0.45 0.41 0.41 0.39 0.45 0.54 0.58 0.55 0.50 0.50 0.55 0.56 0.56 0.61 0.61 0.72
0.81 0.79 0.77 0.76 0.71 0.67 0.63 0.59 0.56 0.54 0.52 0.50 0.48 0.46 0.44 0.43 0.42 0.43 0.43 0.45 0.46 0.45 0.44 0.44 0.46 0.44 0.34 0.29 0.35 0.34 0.44 0.43 0.47 0.40 0.35 0.38 0.49 0.47 0.50 0.44 0.50 0.54 0.51 0.59 0.62 0.61 0.66
0.89 0.86 0.83 0.81 0.77 0.74 0.72 0.66 0.62 0.58 0.55 0.51 0.48 0.46 0.45 0.42 0.40 0.40 0.40 0.41 0.44 0.48 0.52 0.53 0.53 0.43 0.25 0.42 0.48 0.39 0.33 0.34 0.41 0.43 0.36 0.37 0.40 0.45 0.44 0.50 0.50 0.47 0.49 0.47 0.64 0.62 0.68
0.98 0.93 0.90 0.86 0.82 0.79 0.75 0.72 0.69 0.65 0.59 0.56 0.52 0.48 0.45 0.40 0.38 0.37 0.37 0.36 0.44 0.55 0.60 0.62 0.52 0.44 0.25 0.51 0.35 0.37 0.38 0.35 0.39 0.34 0.40 0.38 0.41 0.40 0.43 0.36 0.38 0.48 0.40 0.46 0.68 0.63 0.71
1.02 0.98 0.95 0.89 0.84 0.81 0.78 0.76 0.72 0.69 0.65 0.61 0.57 0.51 0.48 0.43 0.39 0.37 0.35 0.36 0.47 0.58 0.68 0.66 0.59 0.42 0.36 0.31 0.42 0.46 0.46 0.38 0.33 0.35 0.30 0.27 0.28 0.33 0.37 0.37 0.29 0.42 0.44 0.53 0.66 0.64 0.72
1.03 0.99 0.98 0.96 0.94 0.88 0.83 0.79 0.76 0.73 0.68 0.64 0.61 0.57 0.51 0.44 0.39 0.37 0.38 0.35 0.38 0.48 0.54 0.33 0.40 0.30 0.38 0.38 0.52 0.38 0.46 0.34 0.29 0.33 0.20 0.20 0.17 0.20 0.32 0.38 0.41 0.47 0.51 0.49 0.58 0.65 0.59
1.08 1.05 1.01 1.00 0.99 0.95 0.91 0.86 0.81 0.78 0.73 0.68 0.66 0.62 0.55 0.48 0.40 0.39 0.44 0.28 0.30 0.29 0.20 0.24 0.25 0.27 0.30 0.31 0.26 0.35 0.46 0.29 0.22 0.22 0.24 0.19 0.14 0.20 0.34 0.40 0.40 0.43 0.47 0.52 0.64 0.65 0.65
1.09 1.08 1.05 1.04 1.02 1.00 0.98 0.96 0.90 0.85 0.80 0.75 0.70 0.68 0.61 0.52 0.42 0.50 0.32 0.33 0.36 0.34 0.22 0.20 0.21 0.20 0.20 0.23 0.19 0.23 0.29 0.34 0.23 0.20 0.22 0.15 0.15 0.20 0.27 0.36 0.38 0.39 0.42 0.49 0.53 0.69 0.87
1.11 1.09 1.08 1.07 1.05 1.03 1.01 0.98 0.93 0.90 0.86 0.82 0.77 0.73 0.68 0.57 0.45 0.39 0.37 0.43 0.38 0.36 0.20 0.20 0.23 0.22 0.24 0.24 0.18 0.23 0.28 0.26 0.30 0.22 0.21 0.20 0.18 0.17 0.20 0.29 0.35 0.33 0.44 0.49 0.51 0.65 0.63
1.13 1.13 1.11 1.08 1.02 1.01 0.98 0.96 0.95 0.93 0.88 0.85 0.83 0.76 0.73 0.63 0.50 0.40 0.42 0.40 0.37 0.36 0.15 0.27 0.30 0.39 0.34 0.26 0.35 0.27 0.33 0.27 0.25 0.25 0.23 0.18 0.18 0.17 0.17 0.20 0.33 0.32 0.43 0.47 0.50 0.54 0.73
1.13 1.12 1.12 1.07 1.01 1.00 0.95 0.94 0.94 0.92 0.88 0.87 0.84 0.78 0.74 0.60 0.60 0.52 0.48 0.43 0.39 0.25 0.18 0.26 0.32 0.29 0.31 0.30 0.29 0.36 0.28 0.29 0.30 0.27 0.25 0.22 0.25 0.18 0.18 0.21 0.29 0.35 0.39 0.45 0.44 0.48 0.43
1.11 1.09 1.10 1.06 1.01 0.97 0.94 0.92 0.91 0.87 0.84 0.84 0.82 0.77 0.70 0.70 0.48 0.56 0.48 0.39 0.26 0.20 0.29 0.26 0.27 0.28 0.27 0.26 0.26 0.29 0.23 0.19 0.19 0.17 0.20 0.23 0.22 0.24 0.18 0.18 0.23 0.31 0.34 0.33 0.33 0.35 0.33
1.08 1.05 1.02 1.01 0.98 0.94 0.89 0.85 0.83 0.82 0.81 0.81 0.78 0.72 0.72 0.71 0.68 0.57 0.44 0.31 0.21 0.25 0.26 0.29 0.28 0.32 0.26 0.27 0.28 0.30 0.27 0.20 0.22 0.23 0.21 0.20 0.18 0.23 0.21 0.17 0.18 0.23 0.28 0.27 0.27 0.31 0.35
1.00 0.95 0.92 0.90 0.89 0.85 0.83 0.82 0.82 0.80 0.78 0.77 0.74 0.67 0.65 0.66 0.70 0.61 0.41 0.26 0.23 0.27 0.30 0.28 0.30 0.27 0.28 0.29 0.28 0.28 0.30 0.26 0.25 0.24 0.19 0.22 0.23 0.28 0.24 0.20 0.18 0.20 0.22 0.34 0.34 0.41 0.36
0.85 0.85 0.83 0.80 0.78 0.76 0.76 0.75 0.76 0.74 0.74 0.72 0.63 0.60 0.57 0.67 0.78 0.61 0.41 0.29 0.29 0.33 0.30 0.29 0.26 0.29 0.28 0.30 0.29 0.28 0.29 0.32 0.30 0.28 0.28 0.26 0.24 0.31 0.25 0.23 0.19 0.16 0.24 0.26 0.32 0.29 0.31
0.77 0.76 0.73 0.72 0.73 0.73 0.73 0.72 0.71 0.67 0.67 0.64 0.55 0.39 0.51 0.67 0.76 0.59 0.38 0.36 0.38 0.37 0.33 0.28 0.29 0.29 0.27 0.27 0.28 0.29 0.29 0.30 0.31 0.33 0.30 0.27 0.27 0.30 0.33 0.22 0.18 0.16 0.16 0.28 0.33 0.34 0.30
0.68 0.69 0.70 0.71 0.71 0.71 0.71 0.69 0.68 0.64 0.63 0.59 0.46 0.32 0.49 0.61 0.46 0.49 0.44 0.46 0.47 0.40 0.38 0.31 0.29 0.31 0.33 0.32 0.30 0.29 0.29 0.32 0.35 0.34 0.30 0.32 0.30 0.28 0.28 0.32 0.29 0.22 0.18 0.20 0.28 0.30 0.33
0.65 0.66 0.67 0.67 0.67 0.67 0.67 0.67 0.67 0.64 0.65 0.52 0.37 0.36 0.45 0.40 0.24 0.30 0.40 0.43 0.46 0.46 0.42 0.36 0.29 0.29 0.32 0.31 0.29 0.32 0.33 0.37 0.38 0.37 0.34 0.35 0.29 0.26 0.31 0.31 0.29 0.24 0.21 0.19 0.20 0.32 0.32
0.65 0.65 0.65 0.65 0.66 0.66 0.67 0.67 0.69 0.67 0.68 0.58 0.40 0.27 0.33 0.38 0.36 0.29 0.29 0.33 0.36 0.45 0.44 0.41 0.37 0.33 0.29 0.29 0.31 0.30 0.34 0.37 0.38 0.37 0.42 0.43 0.38 0.30 0.27 0.31 0.31 0.23 0.23 0.20 0.21 0.19 0.25
0.67 0.68 0.67 0.66 0.66 0.67 0.66 0.68 0.69 0.70 0.70 0.61 0.45 0.33 0.37 0.31 0.36 0.42 0.48 0.46 0.43 0.49 0.52 0.48 0.41 0.38 0.32 0.28 0.29 0.30 0.34 0.36 0.36 0.35 0.35 0.38 0.34 0.37 0.36 0.40 0.40 0.31 0.22 0.21 0.20 0.21 0.22
0.67 0.68 0.69 0.70 0.68 0.69 0.69 0.68 0.69 0.70 0.73 0.57 0.41 0.39 0.42 0.35 0.37 0.35 0.42 0.40 0.38 0.44 0.51 0.51 0.45 0.45 0.38 0.33 0.32 0.30 0.33 0.36 0.37 0.34 0.38 0.39 0.33 0.41 0.36 0.36 0.34 0.33 0.34 0.30 0.25 0.21 0.22
0.65 0.68 0.70 0.71 0.73 0.72 0.70 0.70 0.68 0.68 0.71 0.56 0.57 0.57 0.47 0.32 0.32 0.31 0.27 0.38 0.37 0.35 0.46 0.55 0.60 0.59 0.49 0.45 0.51 0.49 0.45 0.39 0.43 0.47 0.44 0.43 0.44 0.47 0.39 0.44 0.44 0.36 0.30 0.31 0.33 0.32 0.26
0.66 0.67 0.69 0.71 0.70 0.71 0.73 0.73 0.73 0.71 0.71 0.66 0.60 0.57 0.43 0.28 0.32 0.33 0.38 0.37 0.39 0.43 0.45 0.49 0.55 0.59 0.66 0.68 0.59 0.55 0.52 0.54 0.51 0.45 0.44 0.46 0.47 0.48 0.42 0.49 0.36 0.37 0.45 0.44 0.38 0.37 0.37
0.65 0.67 0.68 0.72 0.71 0.68 0.72 0.75 0.75 0.75 0.72 0.68 0.67 0.56 0.47 0.31 0.34 0.33 0.37 0.37 0.42 0.39 0.36 0.34 0.45 0.58 0.65 0.58 0.50 0.45 0.45 0.47 0.48 0.50 0.54 0.57 0.51 0.44 0.44 0.44 0.53 0.51 0.63 0.54 0.52 0.42 0.40
0.63 0.64 0.68 0.69 0.72 0.72 0.72 0.75 0.74 0.72 0.72 0.70 0.70 0.68 0.54 0.37 0.32 0.43 0.40 0.42 0.40 0.39 0.39 0.36 0.42 0.55 0.59 0.53 0.46 0.40 0.36 0.38 0.38 0.37 0.44 0.55 0.61 0.58 0.53 0.42 0.38 0.48 0.87 0.75 0.62 0.38 0.48
0.67 0.65 0.66 0.71 0.75 0.76 0.74 0.72 0.72 0.72 0.71 0.69 0.66 0.72 0.57 0.41 0.42 0.43 0.39 0.42 0.46 0.47 0.45 0.51 0.47 0.45 0.50 0.40 0.40 0.39 0.35 0.39 0.35 0.32 0.34 0.35 0.41 0.38 0.43 0.46 0.46 0.68 0.75 0.77 0.47 0.50 0.73
0.69 0.68 0.66 0.69 0.75 0.74 0.70 0.71 0.72 0.72 0.72 0.66 0.62 0.73 0.58 0.47 0.44 0.47 0.46 0.43 0.43 0.44 0.37 0.55 0.41 0.42 0.48 0.43 0.42 0.40 0.38 0.39 0.40 0.42 0.38 0.35 0.36 0.37 0.43 0.41 0.39 0.81 0.75 0.62 0.78 0.87 0.86
0.71 0.70 0.69 0.71 0.74 0.68 0.70 0.70 0.72 0.70 0.70 0.68 0.58 0.70 0.70 0.54 0.46 0.56 0.55 0.55 0.55 0.50 0.44 0.45 0.46 0.52 0.53 0.48 0.53 0.59 0.56 0.59 0.45 0.40 0.45 0.38 0.41 0.41 0.47 0.46 0.78 0.87 0.83 0.90 0.81 0.77 0.81